Flag for U.S.A. Weather past 2 weeks in Neenah, Wisconsin, U.S.A.

Now
61 °F

Partly sunny.


Feels Like: 61 °F
Forecast: 53 / 73 °F
Wind: 8 mph from North

Location: Appleton / Outagamie

Current Time: Jul 28, 2014 at 11:27:32 AM

Latest Report: Jul 28, 2014 at 10:45 AM


Visibility: 10 mi

Pressure: 30.13 "Hg

Humidity: 59%

Dew point: 46 °F

Location of NeenahLocation

Historic Weather in Neenah — Graph

°F

Neenah temperature yesterday

Maximum temperature yesterday: 75 °F (at 10:45 AM)
Minimum temperature yesterday: 55 °F (at 11:55 PM)
Average temperature yesterday: 67 °F

Past Weeks' High & Low Weather Summary

 TemperatureHumidityPressure
High88 °F (Jul 22, 5:45 PM)100% (Jul 14, 4:45 PM)30.22 "Hg (Jul 14, 4:45 PM)
Low46 °F (Jul 16, 4:35 AM)27% (Jul 13, 4:45 PM)29.71 "Hg (Jul 27, 4:35 AM)
Average65 °F70%29.99 "Hg
* Reported Jul 13 9:45 AM — Jul 28 9:45 AM, Neenah, Weather by CustomWeather, © 2014

Note: Actual official high and low records may vary slightly from our data, if they occured in-between our weather recording intervals... More about our weather records

Advertising

Neenah weather history for previous 24 hours

 ConditionsComfort  
Time TempWeatherWind HumidityBarometerVisibility
9:45 AM
Jul 28
61 °FPartly sunny.13 mph59%30.12 "Hg10 mi
8:45 AM57 °FScattered clouds.15 mph67%30.12 "Hg10 mi
7:45 AM54 °FPartly sunny.13 mph77%30.11 "Hg10 mi
6:45 AM52 °FPartly sunny.9 mph88%30.09 "Hg10 mi
5:45 AM52 °FPassing clouds.9 mph88%30.07 "Hg10 mi
5:15 AM50 °FClear.9 mph88%30.06 "Hg10 mi
4:55 AM52 °FClear.9 mph82%30.06 "Hg10 mi
4:35 AM52 °FClear.10 mph82%30.05 "Hg10 mi
4:15 AM52 °FClear.10 mph82%30.04 "Hg10 mi
3:55 AM52 °FClear.10 mph82%30.04 "Hg10 mi
3:35 AM52 °FClear.10 mph88%30.04 "Hg10 mi
3:15 AM54 °FClear.10 mph82%30.03 "Hg10 mi
2:55 AM54 °FClear.9 mph82%30.02 "Hg10 mi
2:35 AM54 °FClear.9 mph82%30.02 "Hg10 mi
2:15 AM54 °FClear.9 mph82%30.02 "Hg10 mi
1:55 AM54 °FClear.9 mph82%30.01 "Hg10 mi
1:15 AM55 °FClear.10 mph82%30.01 "Hg10 mi
12:55 AM55 °FClear.13 mph82%30.01 "Hg10 mi
12:35 AM55 °FClear.13 mph82%30.00 "Hg10 mi
12:15 AM55 °FClear.10 mph82%29.99 "Hg10 mi
11:55 PM
Jul 27
55 °FClear.10 mph82%29.99 "Hg10 mi
11:35 PM57 °FClear.10 mph77%29.99 "Hg10 mi
11:15 PM57 °FClear.12 mph77%29.98 "Hg10 mi
10:45 PM57 °FPassing clouds.13 mph82%29.98 "Hg10 mi
9:45 PM61 °FPassing clouds.13 mph77%29.96 "Hg10 mi
8:45 PM63 °FScattered clouds.13 mph73%29.94 "Hg10 mi
7:45 PM64 °FPartly sunny.17 mph68%29.90 "Hg10 mi
5:45 PM70 °FPartly sunny.15 mph69%29.82 "Hg10 mi
4:45 PM68 °FPartly sunny.17 mph83%29.79 "Hg10 mi
3:45 PM72 °FBroken clouds.16 mph61%29.77 "Hg10 mi
2:45 PM70 °FBroken clouds.12 mph73%29.76 "Hg10 mi
1:45 PM73 °FThunderstorms. Broken clouds.16 mph53%29.71 "Hg10 mi
12:45 PM72 °FBroken clouds.13 mph61%29.72 "Hg10 mi
11:45 AM73 °FPartly sunny.14 mph53%29.72 "Hg10 mi
Weather by CustomWeather, © 2014

See weather overviewHow to use our weather pages